Weather History for Kotzebue, AK

Change the Weather History Date:

Tuesday, May 28, 2013

  Actual Average Record
Temperature  
Mean Temperature 32 °F 37 °F  
Max Temperature 34 °F 43 °F 70 °F (1990)
Min Temperature 30 °F 32 °F 18 °F (1976)
Degree Days  
Heating Degree Days 33 28  
Month to date heating degree days 1117 946  
Since 1 July heating degree days 15020 14726  
Cooling Degree Days 0    
Month to date cooling degree days 0  
Year to date cooling degree days 0  
Moisture  
Dew Point 31 °F    
Average Humidity 0    
Maximum Humidity 0    
Minimum Humidity 0    
Precipitation  
Precipitation 0.00 in 0.01 in 0.13 in (1968)
Month to date precipitation 0.86 0.37  
Year to date precipitation 3.60 2.63  
Snow  
Snow 0.00 in 0.00 in T in (2009)
Month to date snowfall 6.3 1.2  
Since 1 July snowfall 37.4 59.8  
Snow Depth 1.00 in    
Sea Level Pressure  
Sea Level Pressure 29.92 in    
Wind  
Wind Speed 18 mph (WNW)    
Max Wind Speed 24 mph    
Max Gust Speed 29 mph    
Visibility 2 miles    
Events Fog    
T = Trace of Precipitation, MM = Missing Value Source: NWS Daily Summary

Daily Weather History Graph

Daily Weather History Graph

Search for Another Location

Airport:

Trip Planner

Search our weather history database for the weather conditions in past years. The results will help you decide how hot, cold, wet, or windy it might be!

Date:

Astronomy

May. 28, 2013 Rise Set
Actual Time 3:49 AM AKDT 1:52 AM AKDT
Civil Twilight Sun does not rise Sun does not rise
Nautical Twilight Sun does not rise Sun does not rise
Astronomical Twilight Sun does not rise Sun does not rise
Moon 3:03 AM AKDT (5/28) 9:29 AM AKDT (5/28)
Length of Visible Light 24h 00m
Length of Day
22h 02m
Waning Gibbous, 81% of the Moon is Illuminated
May 28
Waning Gibbous
May 31
Last Quarter
Jun 8
New
Jun 16
First Quarter
Jun 23
Full

Hourly Weather History & Observations

Time (AKDT) Temp. Windchill Dew Point Humidity Pressure Visibility Wind Dir Wind Speed Gust Speed Precip Events Conditions
12:49 AM 32.0 °F 20.8 °F 30.2 °F 93% 29.88 in 3.0 mi WNW 17.3 mph - N/A   Mostly Cloudy
12:53 AM 32.0 °F 20.8 °F 30.9 °F 96% 29.88 in 4.0 mi WNW 17.3 mph - N/A   Mostly Cloudy
1:12 AM 32.0 °F 20.5 °F 30.2 °F 93% 29.88 in 1.8 mi WNW 18.4 mph - N/A   Overcast
1:32 AM 30.2 °F 17.8 °F 30.2 °F 100% 29.88 in 0.5 mi WNW 19.6 mph - N/A Fog Light Freezing Fog
1:43 AM 30.2 °F 18.1 °F 30.2 °F 100% 29.89 in 1.0 mi WNW 18.4 mph - N/A   Overcast
1:53 AM 30.9 °F 18.7 °F 30.9 °F 100% 29.89 in 1.0 mi WNW 19.6 mph - N/A   Overcast
2:04 AM 30.2 °F 17.8 °F 30.2 °F 100% 29.89 in 0.8 mi WNW 19.6 mph - N/A   Overcast
2:27 AM 30.2 °F 18.1 °F 30.2 °F 100% 29.89 in 1.0 mi WNW 18.4 mph - N/A   Overcast
2:53 AM 30.9 °F 19.1 °F 30.0 °F 96% 29.89 in 1.8 mi WNW 18.4 mph - N/A   Overcast
3:12 AM 30.2 °F 18.1 °F 30.2 °F 100% 29.89 in 0.5 mi WNW 18.4 mph - N/A Fog Light Freezing Fog
3:28 AM 30.2 °F 17.4 °F 30.2 °F 100% 29.89 in 0.8 mi WNW 20.7 mph - N/A   Overcast
3:44 AM 30.2 °F 18.1 °F 30.2 °F 100% 29.89 in 0.5 mi West 18.4 mph - N/A Fog Light Freezing Fog
3:53 AM 30.0 °F 18.3 °F 30.0 °F 100% 29.89 in 0.5 mi WNW 17.3 mph 25.3 mph N/A Fog Light Freezing Fog
4:53 AM 30.0 °F 17.5 °F 28.9 °F 96% 29.90 in 0.2 mi West 19.6 mph - N/A Fog Light Freezing Fog
5:53 AM 30.0 °F 17.9 °F 28.9 °F 96% 29.90 in 0.2 mi WNW 18.4 mph - N/A Fog Light Freezing Fog
6:53 AM 30.0 °F 17.9 °F 30.0 °F 100% 29.91 in 0.2 mi WNW 18.4 mph - N/A Fog Light Freezing Fog
7:53 AM 30.0 °F 18.3 °F 28.9 °F 96% 29.92 in 0.5 mi WNW 17.3 mph - N/A Fog Light Freezing Fog
8:53 AM 30.9 °F 20.7 °F 30.0 °F 96% 29.93 in 0.5 mi WNW 13.8 mph - N/A Fog Light Freezing Fog
9:32 AM 30.2 °F 19.3 °F 30.2 °F 100% 29.93 in 1.0 mi WNW 15.0 mph - N/A   Overcast
9:53 AM 30.9 °F 20.2 °F 30.9 °F 100% 29.94 in 1.0 mi WNW 15.0 mph - N/A   Mist
10:00 AM 30.2 °F 18.9 °F 30.2 °F 100% 29.94 in 0.8 mi WNW 16.1 mph - N/A   Overcast
10:34 AM 30.2 °F 18.1 °F 30.2 °F 100% 29.94 in 0.5 mi West 18.4 mph - N/A Fog Light Freezing Fog
10:50 AM 32.0 °F 20.8 °F 30.2 °F 93% 29.94 in 1.0 mi West 17.3 mph - N/A   Mist
10:53 AM 30.9 °F 19.1 °F 30.9 °F 100% 29.94 in 1.0 mi West 18.4 mph - N/A   Mist
11:42 AM 32.0 °F 20.5 °F 32.0 °F 100% 29.94 in 0.5 mi West 18.4 mph - N/A Fog Fog
11:53 AM 32.0 °F 20.5 °F 30.9 °F 96% 29.95 in 0.5 mi West 18.4 mph - N/A Fog Fog
12:32 PM 32.0 °F 20.5 °F 30.2 °F 93% 29.94 in 0.8 mi WNW 18.4 mph - N/A   Mist
12:53 PM 32.0 °F 20.5 °F 32.0 °F 100% 29.94 in 0.5 mi West 18.4 mph - N/A Fog Fog
1:13 PM 32.0 °F 19.8 °F 32.0 °F 100% 29.94 in 0.8 mi WNW 20.7 mph 26.5 mph N/A   Mist
1:23 PM 33.8 °F 22.5 °F 32.0 °F 93% 29.94 in 0.8 mi WNW 19.6 mph 25.3 mph N/A   Overcast
1:33 PM 32.0 °F 19.8 °F 30.2 °F 93% 29.94 in 1.0 mi West 20.7 mph 26.5 mph N/A   Overcast
1:53 PM 33.1 °F 21.5 °F 30.9 °F 92% 29.95 in 1.0 mi WNW 19.6 mph - N/A   Overcast
2:53 PM 33.1 °F 21.2 °F 32.0 °F 96% 29.95 in 1.0 mi WNW 20.7 mph - N/A   Overcast
3:53 PM 33.1 °F 20.9 °F 32.0 °F 96% 29.94 in 1.0 mi WNW 21.9 mph - N/A   Overcast
4:53 PM 33.1 °F 21.2 °F 32.0 °F 96% 29.94 in 1.0 mi WNW 20.7 mph - N/A   Mist
5:22 PM 33.8 °F 22.2 °F 32.0 °F 93% 29.94 in 0.5 mi WNW 20.7 mph - N/A Fog Fog
5:53 PM 33.1 °F 21.2 °F 32.0 °F 96% 29.94 in 0.5 mi WNW 20.7 mph - N/A Fog Fog
6:14 PM 33.8 °F 22.2 °F 33.8 °F 100% 29.93 in 0.5 mi WNW 20.7 mph - N/A Fog Fog
6:26 PM 33.8 °F 22.8 °F 33.8 °F 100% 29.93 in 0.5 mi WNW 18.4 mph - N/A Fog Fog
6:47 PM 33.8 °F 22.5 °F 33.8 °F 100% 29.92 in 4.0 mi WNW 19.6 mph - N/A   Scattered Clouds
6:53 PM 35.1 °F 24.1 °F 33.1 °F 92% 29.93 in 10.0 mi WNW 19.6 mph - N/A   Scattered Clouds
7:53 PM 35.1 °F 24.1 °F 33.1 °F 92% 29.93 in 10.0 mi WNW 19.6 mph - N/A   Scattered Clouds
8:37 PM 35.6 °F 24.8 °F 33.8 °F 93% 29.92 in 10.0 mi WNW 19.6 mph - N/A   Scattered Clouds
8:53 PM 35.1 °F 24.5 °F 33.1 °F 92% 29.93 in 10.0 mi WNW 18.4 mph - N/A   Scattered Clouds
9:53 PM 35.1 °F 25.2 °F 33.1 °F 92% 29.93 in 10.0 mi WNW 16.1 mph - N/A   Partly Cloudy
10:53 PM 35.1 °F 26.4 °F 33.1 °F 92% 29.93 in 10.0 mi WNW 12.7 mph - N/A   Scattered Clouds
11:53 PM 35.1 °F 25.5 °F 33.1 °F 92% 29.93 in 10.0 mi WNW 15.0 mph - N/A   Scattered Clouds